Simultaneous Nadir Overpasses (SNOs) Predictions

Prediction of SNOs between METOP-A and NOAA-19 Satellite Orbit:

Table of predicted SNOs for the next 14.0 days since TLE Epoch: 5/10/2013
Index Date (METOP-A) Time (METOP-A) Lat,Lon (METOP-A) SZA (METOP-A ) Date (NOAA-19) Time (NOAA-19) Lat,Lon (NOAA-19) SZA (NOAA-19 ) Distance(km) Time Diff (sec)
1 05/19/2013 11:05:00 74.12, 8.38 54.23 05/19/2013 11:03:54 74.11, 5.30 54.34 93.59 66
2 05/19/2013 11:55:53 -73.54, 174.33 126.31 05/19/2013 11:54:39 -73.57, 173.91 126.26 13.76 74
3 05/19/2013 12:46:35 73.45, -18.55 53.60 05/19/2013 12:45:45 73.45, -18.59 53.61 1.22 50
4 05/19/2013 13:37:17 -73.42, 148.72 126.44 05/19/2013 13:36:41 -73.45, 148.69 126.41 2.74 36
5 05/19/2013 14:27:57 73.43, -43.94 53.56 05/19/2013 14:27:49 73.42, -44.04 53.56 3.43 8
6
